Regional Weather Roundup
Issued by NWS

Home | Current Version | Previous Version | Text Only | Print | Product List | Glossary Off
Versions: 1 2 3 4 5 6 7 8 9 10 11 12 13 14 15 16 17 18 19 20 21 22 23 24 25 26 27 28 29 30 31 32 33 34 35 36 37 38 39 40 41 42 43 44 45 46 47 48 49 50

000
ASUS45 KPSR 241210
RWRAZ

ARIZONA HOURLY REGIONAL WEATHER ROUNDUP
NATIONAL WEATHER SERVICE PHOENIX AZ
500 AM MST SAT FEB 24 2018

NOTE: FAIR INDICATES FEW OR NO CLOUDS BELOW 12,000 FEET WITH NO
SIGNIFICANT WEATHER AND/OR OBSTRUCTIONS TO VISIBILITY.

AZZ001>003-036-241300-
NORTHWEST ARIZONA

CITY           SKY/WX    TMP DP  RH WIND       PRES   REMARKS
BULLHEAD CITY  CLEAR     41  23  48 NE5       30.30R
KINGMAN        CLEAR     22  19  89 E6        30.22R WCI  14
6HR MIN TEMP:  21; 6HR MAX TEMP:  30;

$$

AZZ004>008-015-016-018-241300-
NORTH CENTRAL ARIZONA

CITY           SKY/WX    TMP DP  RH WIND       PRES   REMARKS
GRAND CANYON   PTCLDY   -12 -16  82 NE6       30.10R WCI -26
6HR MIN TEMP: -13; 6HR MAX TEMP:  12;

WILLIAMS       CLOUDY    16  12  86 N3        30.06S
PRESCOTT       CLEAR     19  16  88 W3        30.14R
6HR MIN TEMP:  19; 6HR MAX TEMP:  26;

FLAGSTAFF      PTCLDY     4   1  88 CALM      30.05R
6HR MIN TEMP:   4; 6HR MAX TEMP:  18;

PAYSON         CLEAR     23  16  74 NE8       30.11R WCI  14
PAGE           PTCLDY    27   7  42 W6        30.13R WCI  20
6HR MIN TEMP:  27; 6HR MAX TEMP:  32;

$$

AZZ009>014-017-241300-
NORTHEAST ARIZONA

CITY           SKY/WX    TMP DP  RH WIND       PRES   REMARKS
WINSLOW        CLEAR     13  10  88 S6        30.12R WCI   4
6HR MIN TEMP:  13; 6HR MAX TEMP:  28; 6HR PCP: TRACE;

SAINT JOHNS    LGT SNOW  24  20  84 W10       30.07R FOG     WCI  14
6HR MIN TEMP:  23; 6HR MAX TEMP:  26; 6HR PCP:  0.02;

WINDOW ROCK    CLEAR     19  13  77 CALM      30.01R
6HR MIN TEMP:  19; 6HR MAX TEMP:  23; 6HR PCP: TRACE;

SHOW LOW       CLOUDY    19  18  93 CALM      30.09R
$$

AZZ540-542>544-546-548-241300-
GREATER PHOENIX AREA

CITY           SKY/WX    TMP DP  RH WIND       PRES   REMARKS
PHOENIX        CLEAR     41  27  57 CALM      30.18R
6HR MIN TEMP:  41; 6HR MAX TEMP:  50;

BUCKEYE        CLEAR     36  23  60 NW7       30.23R WCI  30
LUKE AFB       CLEAR     39  25  57 N10       30.19R WCI  32
6HR MIN TEMP:  38; 6HR MAX TEMP:  45;

DEER VALLEY    CLEAR     40  23  50 NE3       30.18R
6HR MIN TEMP:  39; 6HR MAX TEMP:  44;

SCOTTSDALE     CLEAR     37  25  61 CALM      30.19R
6HR MIN TEMP:  37; 6HR MAX TEMP:  48;

MESA-GATEWAY   CLEAR     68  23  18 CALM      30.20R
$$

AZZ539-553-241300-
SOUTHWEST MARICOPA COUNTY AND PINAL COUNTY

CITY           SKY/WX    TMP DP  RH WIND       PRES   REMARKS
CASA GRANDE    NOT AVBL
GILA BEND      FAIR      34  18  52 SW6       30.22R WCI  29
6HR MIN TEMP:  34; 6HR MAX TEMP:  45;

$$

AZZ503-504-507>509-241300-
SOUTHEAST ARIZONA

CITY           SKY/WX    TMP DP  RH WIND       PRES   REMARKS
TUCSON         CLEAR     39  24  55 CALM      30.18S
6HR MIN TEMP:  39; 6HR MAX TEMP:  48;

DAVIS-MONTHAN  CLEAR     37  20  52 W5        30.15S WCI  33
6HR MIN TEMP:  37; 6HR MAX TEMP:  45;

NOGALES        CLEAR     30  23  75 CALM      30.13R
6HR MIN TEMP:  30; 6HR MAX TEMP:  41;

SIERRA VISTA   PTCLDY    31  22  69 W8        30.14R WCI  23
6HR MIN TEMP:  30; 6HR MAX TEMP:  39;

DOUGLAS        CLEAR     34  24  67 N9        30.13R WCI  27
6HR MIN TEMP:  33; 6HR MAX TEMP:  40;

SAFFORD        CLEAR     37  26  64 NW10      30.12R WCI  30
6HR MIN TEMP:  36; 6HR MAX TEMP:  44;

$$

AZZ532-241300-
SOUTHWEST ARIZONA

CITY           SKY/WX    TMP DP  RH WIND       PRES   REMARKS
YUMA           CLEAR     39  19  44 CALM      30.27R
6HR MIN TEMP:  39; 6HR MAX TEMP:  52;

$$

CAZ041-043-047-048-061-525>527-560>570-241300-
SOUTHERN CALIFORNIA

CITY           SKY/WX    TMP DP  RH WIND       PRES   REMARKS
DOWNTOWN L.A.  CLEAR     42  22  44 CALM      30.31R
6HR MIN TEMP:  42; 6HR MAX TEMP:  50;

L.A. AIRPORT   CLEAR     46  20  35 NW3       30.31R
6HR MIN TEMP:  44; 6HR MAX TEMP:  51;

SAN DIEGO      CLEAR     47  31  53 CALM      30.32S
6HR MIN TEMP:  46; 6HR MAX TEMP:  52;

BURBANK        CLEAR     40  18  41 CALM      30.29S
6HR MIN TEMP:  39; 6HR MAX TEMP:  46;

ONTARIO        CLEAR     37  20  50 VRB6      30.29R WCI  32
6HR MIN TEMP:  35; 6HR MAX TEMP:  47;

RIVERSIDE      CLEAR     43  11  27 NE3       30.30R
6HR MIN TEMP:  42; 6HR MAX TEMP:  49;

PALM SPRINGS   CLEAR     42   9  25 N3        30.32S
6HR MIN TEMP:  42; 6HR MAX TEMP:  54;

EL CENTRO NAS  CLEAR     42  14  32 N8        30.32R
6HR MIN TEMP:  38; 6HR MAX TEMP:  50;

IMPERIAL       CLEAR     41  19  41 NW7       30.29R
6HR MIN TEMP:  38; 6HR MAX TEMP:  50;

BLYTHE         CLEAR     41  10  28 N9        30.28R
6HR MIN TEMP:  41; 6HR MAX TEMP:  46;

NEEDLES        CLEAR     44  17  33 NW10      30.29R
6HR MIN TEMP:  42; 6HR MAX TEMP:  48;

$$

NVZ020-UTZ003-241300-
SOUTHERN NEVADA-UTAH

CITY           SKY/WX    TMP DP  RH WIND       PRES   REMARKS
LAS VEGAS      CLEAR     36   6  28 E3        30.27S
6HR MIN TEMP:  36; 6HR MAX TEMP:  43;

SALT LAKE CITY PTCLDY    14  10  84 SE8       30.16S WCI   3
6HR MIN TEMP:  13; 6HR MAX TEMP:  21; 6HR PCP: TRACE;

$$

NMZ009-TXZ055-241300-
NEW MEXICO-WEST TEXAS

CITY           SKY/WX    TMP DP  RH WIND       PRES   REMARKS
ALBUQUERQUE    PTCLDY    29  15  56 W5        29.99R WCI  24
6HR MIN TEMP:  29; 6HR MAX TEMP:  36;

EL PASO        CLEAR     44  22  41 NW22G36   29.97R
6HR MIN TEMP:  44; 6HR MAX TEMP:  57;

$$


........................KEY........................
SKY/WX - SKY CONDITION/WEATHER
TMP    - TEMPERATURE IN FAHRENHEIT
DP     - DEW POINT IN FAHRENHEIT
RH     - RELATIVE HUMIDITY IN PERCENT
WIND   - DIRECTION AND SPEED IN MILES PER HOUR (MPH)
VRB    - VARIABLE WIND DIRECTION
PRES   - MEAN SEA LEVEL PRESSURE IN INCHES OF MERCURY
         F - FALLING PRESSURE   R - RISING PRESSURE
         S - STEADY PRESSURE
VSB    - VISIBILITY IN MILES
HX     - HEAT INDEX IN FAHRENHEIT
WCI    - WIND CHILL INDEX IN FAHRENHEIT
TC     - TEMPERATURE IN CELSIUS WHICH IS ALSO KNOWN AS
         TEMPERATURE IN CENTIGRADE
AFB    - AIR FORCE BASE
         LUKE AFB IS LUKE AIR FORCE BASE
         DAVIS-MONTHAN IS DAVIS-MONTHAN AIR FORCE BASE
NAS    - NAVAL AIR STATION
         EL CENTRO NAS IS EL CENTRO NAVAL AIR STATION
N/A    - NOT AVAILABLE




USA.gov is the U.S. government's official web portal to all federal, state and local government web resources and services.